Regional Weather Roundup
Issued by NWS

Home | Current Version | Previous Version | Graphics & Text | Print | Product List | Glossary On
Versions: 1 2 3 4 5 6 7 8 9 10 11 12 13 14 15 16 17 18 19 20 21 22 23 24 25 26 27 28 29 30 31 32 33 34 35 36 37 38 39 40 41 42 43 44 45 46 47 48 49 50
000
ASUS43 KLSX 290810
RWRMO

WEATHER SUMMARY FOR MISSOURI
NATIONAL WEATHER SERVICE SPRINGFIELD MO
300 AM CDT FRI JUL 29 2016

NOTE: "FAIR" INDICATES FEW OR NO CLOUDS BELOW 12,000 FEET WITH NO
       SIGNIFICANT WEATHER AND/OR OBSTRUCTIONS TO VISIBILITY.
       CURRENT SKY AND/OR WEATHER CONDITIONS ARE NOT AVAILABLE FOR
       CHILLICOTHE AND FARMINGTON.

MOZ001>031-035>038-043-044-053-054-290900-
...NORTHERN AND WESTERN MISSOURI...

CITY           SKY/WX    TMP DP  RH WIND       PRES   REMARKS
KANSAS CTY INT PTCLDY    73  65  75 MISG      29.97F
KANSAS C DTWN  MOCLDY    75  66  73 NE7       29.95F
LEE`S SUMMIT   PTCLDY    72  69  90 N3        29.97
ST JOSEPH      CLEAR     68  65  90 NW5       29.98F
CHILLICOTHE      N/A     69  66  90 NW3       29.98F
KIRKSVILLE     PTCLDY    67  63  87 NW6       29.97F

$$
MOZ066>068-077>081-088>096-101>105-290900-
...SOUTHWEST MISSOURI...

CITY           SKY/WX    TMP DP  RH WIND       PRES   REMARKS
SPRINGFIELD    CLEAR     72  69  90 SW3       29.95F
JOPLIN         CLOUDY    73  69  87 E3        29.94F

$$
MOZ032>034-039>042-045>050-055>058-069>072-290900-
...CENTRAL MISSOURI...

CITY           SKY/WX    TMP DP  RH WIND       PRES   REMARKS
COLUMBIA       PTCLDY    71  69  93 NE5       29.93F
JEFFERSON CITY MOCLDY    71  70  96 E3        29.92F
ROLLA          PTCLDY    69  67  93 CALM      29.93F
SEDALIA        CLOUDY    74  70  87 CALM      29.95F
WHITEMAN AFB   MOCLDY    72  72 100 NE3       29.93F
OSAGE BEACH    CLOUDY    70  69  97 E3        29.94F

$$
MOZ051-052-059>065-290900-
...EAST CENTRAL MISSOURI...

CITY           SKY/WX    TMP DP  RH WIND       PRES   REMARKS
ST LOUIS INTL  MOCLDY    77  69  76 NW3       29.92F
SPIRIT OF STL  MOCLDY    74  72  93 CALM      29.91F
ST CHARLES     PTCLDY    75  69  81 N3        29.91F

$$
MOZ072>076-082>087-097>100-106>115-290900-
...SOUTH CENTRAL AND SOUTHEAST MISSOURI...

CITY           SKY/WX    TMP DP  RH WIND       PRES   REMARKS
CAPE GIRARDEAU PTCLDY    72  70  93 S3        29.90S
FARMINGTON     PTCLDY    72  69  90 NW5       29.94
POPLAR BLUFF   CLOUDY    72  69  90 W3        29.91F
WEST PLAINS    PTCLDY    69  66  90 CALM      29.98F

$$




USA.gov is the U.S. government's official web portal to all federal, state and local government web resources and services.